Theta_e
328 322 319 317 306 303 296 298 300 301 302 304 306 303 303 305 303 301 321 329 333 343 348 351 351 353 353 353 353 353 353 353 350 349 348 347 345 344 341 340 338 338 337 336 334 334 337 339 340
319 318 318 313 299 294 294 299 300 301 304 304 304 304 303 303 313 318 321 330 333 342 346 349 348 352 352 352 352 352 352 351 350 349 348 346 344 342 340 339 338 337 336 334 331 331 334 335 338
320 317 310 305 299 293 294 299 300 303 304 304 302 305 306 307 316 317 325 331 333 339 344 347 347 350 351 349 350 351 351 349 348 348 347 346 343 341 339 338 337 336 334 332 330 331 332 335 337
314 313 308 299 296 297 298 299 301 302 304 305 304 302 309 319 319 321 328 331 332 337 344 344 348 350 350 349 349 349 349 349 347 347 346 345 342 340 339 338 336 335 333 330 328 329 331 334 334
314 309 301 297 297 297 300 302 301 301 301 302 302 302 305 316 325 327 329 331 332 335 344 345 347 348 348 348 346 348 348 346 347 346 345 344 341 339 338 337 335 334 331 329 326 326 328 330 331
307 304 296 294 296 299 300 302 300 300 302 300 298 303 304 313 321 324 328 329 333 335 343 345 340 343 345 346 346 346 346 346 345 346 345 344 341 339 337 336 334 333 331 329 326 322 324 325 325
303 300 294 294 297 298 301 302 299 299 299 300 303 299 304 308 314 322 325 330 334 337 338 343 344 341 337 341 341 343 343 344 343 344 343 341 339 339 337 336 334 332 330 329 325 319 318 320 319
306 300 294 291 294 296 301 301 303 301 299 304 303 298 298 301 310 320 322 327 331 334 336 336 340 341 341 341 335 337 340 340 341 340 336 334 333 333 333 331 333 332 330 328 326 320 314 313 312
307 297 293 294 294 296 301 299 301 302 299 300 303 301 302 304 308 316 318 321 325 322 322 334 336 336 339 343 336 335 336 336 336 334 330 328 330 329 329 329 331 332 330 328 325 323 319 312 313
301 296 296 298 298 297 301 300 300 298 299 298 300 304 305 306 305 307 307 307 309 309 312 314 327 334 336 338 341 339 339 338 338 336 331 333 334 330 328 324 326 329 328 326 325 323 324 318 310
301 296 298 298 301 302 301 299 300 297 297 298 298 301 303 303 303 304 304 305 305 306 309 311 312 324 334 335 336 338 336 336 335 335 333 333 330 326 325 321 323 322 321 322 321 320 317 314 312
297 301 300 303 302 301 299 301 298 299 297 302 301 302 302 302 302 302 303 304 305 307 310 313 312 313 331 335 333 334 334 332 332 333 335 333 329 326 326 322 322 320 321 319 319 319 317 315 314
298 300 302 302 302 300 302 299 299 298 300 301 301 302 300 300 300 303 303 306 307 307 309 311 313 312 326 334 326 324 322 321 321 325 327 332 329 327 325 323 320 321 320 316 316 317 316 315 315
300 300 301 302 302 301 298 298 299 298 300 299 300 299 298 299 298 300 303 304 305 307 308 313 316 314 325 320 318 316 315 314 313 315 320 324 325 322 319 317 315 315 315 315 311 313 314 312 312
300 296 299 300 300 299 299 295 296 299 300 298 298 297 298 298 299 299 301 302 302 305 311 312 316 316 314 313 311 310 310 309 308 309 313 315 317 316 314 313 312 312 313 314 311 313 314 310 310
296 296 291 298 300 297 297 292 299 299 298 297 297 296 297 297 298 300 302 301 301 304 308 309 310 308 308 307 306 305 305 304 304 304 306 310 310 311 310 309 308 309 309 309 310 310 308 305 303
295 289 292 296 299 297 295 293 296 298 297 296 297 297 297 296 297 299 299 298 299 305 305 304 303 302 301 300 300 300 299 299 300 301 303 303 304 307 306 306 306 305 303 301 303 305 305 299 299
291 290 293 292 296 295 293 293 295 297 296 295 296 296 295 296 296 299 298 298 300 304 303 301 300 299 299 298 297 296 296 296 296 295 295 296 299 298 298 298 294 295 294 293 294 299 299 296 296
295 293 292 296 297 293 293 294 297 297 295 295 296 295 295 295 296 299 297 296 299 301 302 300 299 299 299 298 295 293 291 291 291 292 292 291 292 292 292 292 292 291 290 289 290 290 291 290 292
295 292 292 295 298 293 292 293 296 296 296 297 297 295 295 294 294 297 295 297 297 297 298 298 297 296 296 295 293 292 291 290 291 291 290 290 290 290 291 290 289 289 288 288 288 288 288 288 289
293 291 292 292 295 293 290 289 293 297 298 297 297 296 296 293 293 296 295 295 296 297 297 297 297 295 293 293 292 292 292 291 288 288 288 289 289 289 289 288 288 287 287 286 286 286 285 285 285
290 296 295 293 289 285 292 283 290 294 295 294 293 292 293 293 294 296 294 294 295 296 298 296 296 295 294 294 293 291 288 286 287 287 287 288 289 289 289 288 287 287 287 286 285 286 285 284 283
292 295 293 291 288 287 288 285 288 292 292 292 292 291 292 292 293 294 293 293 293 294 293 293 293 293 294 292 291 288 287 287 288 288 287 287 288 288 288 288 287 286 286 285 284 284 283 284 283
296 292 291 289 288 281 287 287 288 292 294 292 292 291 292 292 292 292 291 292 291 291 291 290 290 289 289 289 288 288 287 287 287 286 286 286 287 287 287 287 286 285 284 284 284 284 283 282 282
292 288 282 280 280 280 287 286 290 293 292 294 292 291 292 292 291 288 287 288 289 288 289 287 286 286 287 287 287 287 287 286 286 285 286 285 285 285 285 285 284 284 284 284 283 283 282 282 281
289 289 284 277 278 280 282 281 288 290 292 294 294 293 292 291 289 287 287 286 286 286 285 285 285 286 286 287 287 287 287 287 286 286 286 285 284 284 285 284 283 283 283 282 282 282 281 280 280
289 286 293 286 276 276 283 286 291 289 289 291 291 291 290 289 287 286 286 286 286 285 285 285 285 285 286 286 286 285 286 286 285 285 285 284 283 284 282 282 281 281 281 280 280 279 279 278 278
291 294 284 286 276 277 282 284 286 286 287 289 290 290 290 289 287 286 286 286 286 286 286 285 286 285 285 286 286 286 285 286 286 285 283 283 282 281 280 279 279 279 278 278 277 277 277 276 277
288 286 288 290 285 280 277 282 288 290 290 289 291 291 290 289 287 286 286 286 285 285 285 285 285 285 285 285 285 285 285 285 284 283 282 281 280 279 279 278 278 277 277 276 275 275 275 275 275
293 290 290 284 281 283 281 285 290 291 292 291 291 292 291 290 288 286 285 285 285 284 285 284 285 284 284 285 285 284 284 283 281 280 279 279 278 278 277 277 276 276 276 275 274 273 273 273 273
Wind_Speed
11 9 4 2 2 3 4 4 2 5 6 5 4 4 11 11 6 4 2 7 4 13 13 10 10 12 12 12 11 11 10 11 12 11 13 15 14 14 15 14 13 14 14 14 13 13 13 12 12
8 7 2 3 2 2 4 5 8 9 6 2 3 2 6 9 7 9 5 6 2 10 12 10 9 11 11 10 9 8 9 9 10 12 14 15 14 15 15 14 14 14 14 14 14 14 13 13 11
9 4 2 2 2 5 5 4 9 8 4 4 2 5 7 5 8 5 6 4 5 7 12 12 12 12 13 10 9 7 6 6 8 12 14 15 14 13 14 14 13 14 14 14 14 15 14 13 12
4 2 3 1 4 5 8 7 7 7 5 2 5 10 7 7 5 5 6 5 8 7 10 11 12 11 12 12 10 8 6 7 9 11 13 15 14 13 13 14 13 14 14 15 15 14 14 13 13
3 3 3 3 6 5 7 7 2 4 5 6 1 7 7 5 8 8 6 5 8 6 11 8 11 9 11 11 10 9 8 8 9 10 12 14 14 14 14 13 14 14 14 15 15 14 14 13 12
3 1 3 4 6 7 6 5 1 3 5 5 1 8 5 7 8 5 7 6 7 7 8 8 8 5 6 7 9 9 9 10 9 11 14 14 14 15 15 14 14 14 14 15 14 13 13 13 13
2 2 3 6 4 5 4 3 4 4 6 5 3 3 8 9 5 5 6 6 8 7 4 8 6 5 5 3 9 10 10 10 10 12 13 13 14 14 13 13 13 13 13 13 13 13 13 13 13
3 0 3 1 1 1 6 3 6 5 5 5 4 1 5 3 4 4 5 7 8 5 5 5 5 6 6 6 9 8 8 9 10 12 12 12 11 12 13 11 12 12 12 12 13 12 11 11 11
2 2 4 2 1 1 6 4 1 2 1 3 5 5 4 2 3 5 5 7 7 7 8 6 5 4 4 2 6 10 10 9 10 12 13 12 6 6 6 9 11 11 11 11 11 11 9 5 7
2 2 5 7 6 5 7 4 7 2 5 4 6 8 6 6 6 6 5 6 6 6 4 6 3 4 4 1 5 5 6 5 5 6 8 5 7 6 7 9 11 10 10 8 6 6 9 7 4
1 2 5 4 6 7 2 1 2 3 6 6 4 8 7 7 7 7 6 7 6 4 3 5 5 1 4 1 2 2 2 3 4 6 5 3 5 5 4 3 3 4 4 2 2 4 3 5 3
4 3 3 4 3 1 2 4 1 7 3 7 7 6 6 7 7 6 6 5 5 4 6 5 3 4 4 2 1 2 5 6 6 7 5 5 4 5 4 3 4 4 3 4 4 2 3 3 3
5 4 2 2 4 3 2 5 6 3 10 7 6 5 7 7 4 6 3 6 5 7 6 7 6 3 4 4 6 7 7 7 7 7 8 5 5 6 6 5 4 4 3 4 4 4 4 4 5
4 6 6 6 7 5 4 6 5 3 9 8 6 6 6 5 3 4 6 6 7 6 6 7 9 6 8 8 9 7 7 7 7 7 7 9 6 6 6 6 6 5 3 4 4 4 4 4 4
5 5 8 11 9 6 5 7 11 6 9 9 8 7 5 4 3 5 4 7 5 5 5 6 9 9 11 11 10 8 7 7 7 7 11 10 9 9 8 7 6 5 4 5 5 4 3 4 4
3 5 3 4 9 4 7 8 8 11 9 9 10 9 7 5 4 5 7 6 6 5 7 8 7 10 11 9 9 9 8 8 8 8 8 11 11 10 9 7 6 4 4 4 3 3 4 5 5
6 5 8 5 8 7 8 5 4 7 8 9 9 8 8 7 5 6 8 6 6 6 7 9 9 10 11 9 11 11 11 9 8 8 8 11 10 10 8 6 6 8 7 8 7 7 5 5 5
7 8 7 7 8 6 7 14 6 9 10 11 9 9 8 7 6 6 7 5 6 7 8 9 8 9 9 8 11 10 9 9 9 9 9 11 10 12 10 9 11 9 8 8 9 6 6 6 7
9 10 9 9 6 4 9 11 11 13 10 10 10 10 9 8 8 8 6 6 7 6 8 8 9 6 5 6 9 8 10 9 9 10 12 12 11 11 11 8 9 9 10 8 9 5 6 9 10
10 11 13 8 5 5 8 13 11 10 15 18 13 9 10 9 8 8 6 7 7 8 7 8 9 8 6 6 8 7 8 9 9 8 10 11 12 10 10 9 8 7 6 10 10 10 5 5 9
9 9 8 8 9 5 6 11 16 13 10 10 8 8 9 12 10 8 7 8 8 9 9 9 9 10 10 11 11 10 10 8 8 8 8 9 11 10 10 9 7 7 6 7 8 8 10 6 5
10 8 11 9 5 6 8 11 3 7 12 13 9 8 8 10 10 8 9 9 9 8 9 11 9 10 9 10 9 11 9 11 7 8 7 8 9 9 9 8 7 8 6 8 6 7 5 5 6
4 4 3 4 6 8 7 11 3 4 10 17 11 10 9 10 10 9 10 10 9 8 8 7 8 7 8 11 11 10 11 9 7 7 10 9 8 9 10 9 9 8 6 6 7 6 7 5 4
8 5 3 2 1 9 10 11 10 11 16 6 10 11 11 12 11 10 9 11 9 8 7 6 7 7 8 9 9 10 12 10 9 7 7 6 6 6 8 8 6 6 6 6 5 6 7 6 5
5 6 1 3 3 9 2 10 14 5 1 6 17 15 13 13 12 13 11 11 11 11 10 8 8 8 8 9 8 8 10 9 10 8 7 7 5 4 6 6 6 5 6 6 6 6 5 5 4
10 8 6 7 5 4 2 9 8 3 4 3 15 17 15 15 13 13 13 11 10 11 9 9 9 10 8 10 10 8 8 7 7 8 7 6 5 5 6 7 6 7 6 6 6 4 4 5 4
7 8 9 3 2 1 7 7 5 0 3 6 13 15 17 16 14 14 13 11 11 10 9 10 11 10 8 8 8 8 8 9 8 9 8 6 5 6 7 7 6 7 7 6 6 4 5 5 5
5 5 5 4 4 6 7 9 12 6 9 8 14 17 18 17 16 14 13 13 11 9 10 9 9 11 9 9 9 9 8 9 9 9 8 7 6 7 7 6 6 7 6 6 7 5 6 6 5
5 5 5 6 4 4 4 8 4 3 13 17 16 17 18 17 16 14 12 11 10 8 10 9 10 11 9 7 8 9 9 10 9 8 7 7 7 7 6 6 6 7 7 7 6 6 6 6 5
8 10 11 7 7 6 2 14 2 5 8 12 14 16 17 17 16 15 14 13 12 11 11 10 10 9 8 9 9 9 10 9 9 8 7 6 6 6 6 6 6 6 6 5 5 5 5 5 6
Wind_Direction
286 260 284 309 338 177 123 77 107 88 91 41 64 17 81 55 27 94 139 66 99 132 131 148 141 134 134 133 139 138 143 137 133 121 115 104 97 90 84 77 71 67 61 58 56 54 54 52 47
297 305 258 279 240 177 88 127 85 66 70 98 157 218 106 71 85 103 95 71 141 128 136 141 150 141 139 139 132 130 142 144 132 125 118 109 99 89 84 79 73 67 62 58 55 57 54 50 49
264 270 301 256 277 22 105 76 92 100 71 6 106 33 32 15 35 84 82 115 145 130 145 141 160 157 145 143 138 135 125 126 126 131 122 115 102 90 90 81 75 69 62 59 56 56 55 51 56
329 215 270 270 65 30 88 74 77 116 104 14 336 91 82 31 59 62 109 109 103 133 113 137 147 152 144 151 155 143 133 124 125 130 124 112 103 95 90 87 76 70 60 57 56 57 60 58 54
225 277 292 271 78 86 63 67 14 99 109 114 343 84 91 70 66 106 114 112 109 133 113 126 136 155 152 162 160 148 145 131 123 125 126 112 104 97 91 87 82 76 68 63 58 54 55 55 55
306 171 288 247 128 97 87 68 155 104 48 105 292 103 80 58 67 63 81 61 119 109 116 123 113 138 166 169 157 153 146 136 132 127 127 117 112 105 100 91 85 79 70 66 60 60 60 54 48
334 349 306 338 107 128 141 96 228 170 151 70 334 55 130 71 44 74 91 91 83 97 126 137 149 165 131 116 165 160 156 148 143 136 124 115 110 108 102 101 98 92 84 77 68 63 58 54 49
308 229 308 243 324 181 100 172 37 356 61 139 17 62 129 67 340 105 88 104 88 100 123 140 139 168 178 151 157 153 153 149 143 132 128 126 121 119 116 111 107 101 95 87 77 70 67 62 51
316 319 258 152 167 334 116 186 103 61 189 70 46 61 71 31 305 131 118 106 79 43 19 60 77 15 1 115 140 148 146 148 137 143 138 135 131 131 115 109 100 104 93 76 71 74 67 72 58
330 346 343 10 32 349 121 350 145 185 194 139 107 100 66 62 30 73 55 89 72 61 34 3 67 159 295 3 162 157 147 159 152 152 156 167 146 129 121 108 100 103 107 104 89 80 69 52 54
122 252 17 80 30 3 55 195 128 269 268 42 89 108 78 75 58 59 55 62 46 17 26 24 357 282 195 253 300 141 152 118 133 165 179 136 106 100 84 83 97 91 58 57 44 94 75 80 82
288 231 339 48 80 330 259 305 186 223 99 85 70 86 94 80 78 58 46 50 37 15 37 359 335 318 181 191 68 25 63 58 47 50 49 121 99 97 98 81 85 72 58 47 6 80 88 69 59
222 260 124 263 128 253 327 258 253 271 126 107 103 98 95 90 81 105 63 81 34 29 9 344 322 255 201 102 72 69 61 63 49 45 38 61 82 90 85 68 52 47 45 47 17 354 47 40 12
14 331 283 220 204 215 220 253 220 204 120 126 151 128 104 91 47 75 51 49 30 22 6 318 281 192 87 85 80 76 74 69 59 47 47 52 70 78 79 70 58 45 33 49 35 6 14 10 20
295 294 269 231 209 221 156 263 231 148 145 154 181 149 144 128 105 67 49 69 40 30 10 16 46 67 81 89 82 77 73 74 68 56 52 57 68 75 81 74 62 38 27 42 27 6 7 18 354
251 244 290 360 139 142 145 267 200 144 166 184 186 172 171 146 128 93 71 63 40 45 51 49 62 69 76 83 85 81 75 72 64 56 52 61 64 63 67 68 60 39 29 22 23 14 21 26 14
208 262 226 208 184 132 183 268 139 159 184 210 184 190 174 149 136 94 77 66 57 53 71 71 68 75 85 86 85 81 78 72 70 68 66 64 60 68 73 60 48 41 36 29 14 29 41 18 344
210 213 254 245 192 196 198 257 177 188 205 216 197 185 175 180 139 97 90 81 75 73 83 83 84 81 93 98 91 85 78 71 64 60 56 53 56 55 60 60 53 44 42 29 20 23 29 15 346
285 301 284 289 123 185 233 247 243 196 209 214 211 187 176 171 127 116 107 101 98 82 91 93 96 88 93 104 95 86 84 77 72 65 62 57 60 58 58 57 56 51 47 30 25 3 27 19 357
235 257 267 281 267 164 263 265 264 197 209 204 206 186 171 135 142 137 129 114 105 106 94 89 90 89 90 87 94 99 102 90 87 82 70 65 61 57 66 61 57 54 56 43 30 29 5 13 14
248 234 252 253 288 200 281 264 248 248 211 199 209 180 163 151 154 150 147 130 126 121 122 114 112 106 106 105 109 107 106 93 83 74 74 62 64 61 64 64 66 59 55 51 45 36 34 23 353
249 219 241 252 280 251 167 283 263 265 236 188 179 182 161 150 141 149 147 135 127 120 131 130 123 122 122 130 120 110 106 107 101 94 87 75 65 64 62 61 59 61 54 50 44 37 41 41 32
223 29 292 213 250 290 260 284 231 214 250 211 187 174 163 149 143 151 146 130 124 121 122 112 112 115 111 103 106 107 108 105 105 103 100 91 73 66 61 59 51 49 48 44 46 38 36 39 38
113 86 62 46 216 255 208 216 283 229 234 164 169 169 167 147 144 137 126 133 125 118 113 110 108 94 92 101 102 112 117 119 115 109 100 91 86 74 70 65 62 58 53 51 43 44 43 35 29
156 132 239 292 208 242 106 225 246 289 179 172 172 167 165 155 149 140 144 146 145 136 134 130 125 112 107 106 103 106 107 110 108 103 98 93 82 61 60 63 60 57 47 39 34 55 40 51 38
186 188 169 222 207 273 339 242 256 4 23 129 158 159 153 156 154 154 159 156 147 144 145 135 127 116 111 112 111 105 100 100 96 96 101 95 90 85 72 61 57 55 50 44 31 42 26 43 18
178 213 224 31 57 353 222 263 273 219 75 114 152 160 161 162 158 163 156 156 153 153 142 137 131 123 121 115 108 101 99 101 105 95 89 89 90 85 66 62 62 54 45 40 25 25 32 16 7
160 175 139 116 218 235 262 247 238 226 204 199 175 175 170 166 162 166 162 157 157 146 139 133 134 130 129 124 120 116 113 101 96 93 96 95 89 83 76 67 59 50 36 30 28 19 6 20 351
144 214 205 159 201 206 273 256 334 201 188 189 186 179 175 171 167 166 162 155 148 143 144 143 135 132 126 114 112 110 109 105 101 98 98 99 90 85 81 69 53 44 39 19 26 12 14 358 350
214 189 190 167 219 230 188 251 353 46 171 176 179 177 173 174 169 166 164 156 154 153 152 146 141 136 132 128 119 116 114 112 106 101 97 100 102 93 80 65 55 43 42 22 18 12 1 1 345